[Show "Revision History"] [Show "General Page Infos"] [Show "Page hits and edits"]

Revision History

Showing page edit history entries from 1 to 56 out of 56 entries total. (5 | 10 | 25 | 50 | 100 | 200 items per page)

# Date Size Editor Comment Action
56 2011-07-19 08:44:20 22536 to previous ChristianGrobmeier added ognl report view
55 2011-07-19 04:24:50 20819 to previous ShantiSubramanyam Added Olio status view
54 2011-07-18 18:15:23 20285 to previous NoelBergman Close Report view
53 2011-07-18 16:59:36 20254 to previous TillWestmann   view
52 2011-07-18 09:58:49 19870 to previous StefanBodewig minimal EasyAnt report view
51 2011-07-18 09:46:39 19509 to previous SteveLoughran   view
50 2011-07-18 02:49:11 19501 to previous gdapenny   view
49 2011-07-17 08:44:14 19060 to previous RainerDoebele   view
48 2011-07-17 08:43:26 19064 to previous RainerDoebele   view
47 2011-07-17 08:41:58 19065 to previous RainerDoebele   view
46 2011-07-15 08:02:08 18788 to previous RainerDoebele   view
45 2011-07-15 07:55:41 18788 to previous RainerDoebele   view
44 2011-07-14 02:39:41 17973 to previous MichaelStroucken add tashi report view
43 2011-07-13 22:00:33 15751 to previous AlanGates   view
42 2011-07-13 19:33:32 15835 to previous MarcelOffermans Signed off Celix view
41 2011-07-12 23:32:07 15829 to previous HossMan Lucy signoff view
40 2011-07-12 22:47:59 15820 to previous OwenOmalley   view
39 2011-07-12 22:21:11 15811 to previous MarcelOffermans   view
38 2011-07-12 18:51:32 15788 to previous RalphGoers   view
37 2011-07-12 16:20:05 15780 to previous PatrickHunt   view
36 2011-07-12 08:06:03 15765 to previous AlexanderBroekhuis added Celix report view
35 2011-07-12 07:25:43 14560 to previous esammer   view
34 2011-07-12 06:34:44 13248 to previous MarcelOffermans Added the ACE board report. view
33 2011-07-11 13:20:46 12348 to previous ChrisMattmann sign off on Lucy report view
32 2011-07-11 09:59:25 12339 to previous TomWhite2 Signed off Bigtop report view
31 2011-07-11 06:15:24 12330 to previous MarvinHumphrey Add Lucy to report. view
30 2011-07-10 22:27:27 11561 to previous ChrisDouglas   view
29 2011-07-10 15:14:55 11551 to previous JimJagielski   view
28 2011-07-09 01:15:38 11547 to previous orcmid OpenOffice.org: Added content to Community Development Progress view
27 2011-07-08 19:59:03 11220 to previous PatrickHunt   view
26 2011-07-08 19:50:35 11175 to previous PatrickHunt   view
25 2011-07-08 19:47:00 11084 to previous PatrickHunt   view
24 2011-07-08 16:08:36 10497 to previous PatrickHunt   view
23 2011-07-08 16:07:12 10490 to previous PatrickHunt MRUnit is not reporting this month (just moved to quarterly) view
22 2011-07-08 13:09:35 10574 to previous MohammadNour Adding Apache SQOOP (Incubator) Scheduled Report view
21 2011-07-08 12:15:37 9574 to previous JimJagielski   view
20 2011-07-08 08:58:26 9569 to previous TomWhite2 Signed off Mesos report view
19 2011-07-08 08:55:19 9560 to previous BerndFondermann add Bluesky note and sign off chukwa view
18 2011-07-07 23:05:30 9471 to previous EricYang   view
17 2011-07-07 22:58:16 8510 to previous orcmid OpenOffice.org: Adjustments to follow the reminder items and polish some text view
16 2011-07-07 19:41:54 8420 to previous MateiZaharia   view
15 2011-07-07 02:30:29 8399 to previous JZA Some changes making it more concrete language. view
14 2011-07-06 22:24:33 8476 to previous MateiZaharia   view
13 2011-07-06 18:28:01 7477 to previous orcmid Performed some simple streamlining of the OpenOffice.org report view
12 2011-07-06 17:40:35 8213 to previous robweir   view
11 2011-07-06 15:12:45 6211 to previous KevanMiller   view
10 2011-07-06 13:56:50 6114 to previous RossGardler Sign off Airavata view
9 2011-07-05 16:34:24 6104 to previous HarryMetske added JSPWiki report view
8 2011-07-05 07:55:48 5519 to previous joern   view
7 2011-07-05 02:53:09 4911 to previous ChrisMattmann   view
6 2011-07-05 01:44:23 4902 to previous SureshMarru added Airavata July report view
5 2011-07-03 23:46:59 4857 to previous Matthew Sacks   view
4 2011-07-01 16:07:32 4331 to previous SureshMarru   view
3 2011-07-01 06:28:07 2791 to previous DavidCrossley start the next template view
2 2011-06-01 04:17:52 1018 to previous DavidCrossley add template text view
1 2011-01-21 06:14:54 1034 DavidCrossley Add due dates for upcoming meetings. view